Weather History for KGAO - June, 2012

Change the Weather History Date:

Friday, June 8, 2012

  Actual Average (KAXO) Record (KAXO)
Temperature  
Mean Temperature 76 °F -  
Max Temperature 82 °F 80 °F 89 °F (2007)
Min Temperature 71 °F 78 °F 73 °F (2001)
Cooling Degree Days 12    
Growing Degree Days 26 (Base 50)    
Moisture  
Dew Point 73 °F    
Average Humidity 89    
Maximum Humidity 100    
Minimum Humidity 70    
Precipitation  
Precipitation 0.32 in - - ()
Sea Level Pressure  
Sea Level Pressure 29.87 in    
Wind  
Wind Speed 4 mph (ENE)    
Max Wind Speed 12 mph    
Max Gust Speed 20 mph    
Visibility 10 miles    
Events Rain , Thunderstorm    
Averages and records for this station are not official NWS values.
T = Trace of Precipitation, MM = Missing Value Source: NWS Daily Summary

Daily Weather History Graph

Daily Weather History Graph

Search for Another Location

Airport or City:

Trip Planner

Search our weather history database for the weather conditions in past years. The results will help you decide how hot, cold, wet, or windy it might be!

Date:

Astronomy

Jun. 08, 2012 Rise Set
Actual Time 6:00 AM CDT 7:59 PM CDT
Civil Twilight 5:33 AM CDT 8:27 PM CDT
Nautical Twilight 5:00 AM CDT 8:59 PM CDT
Astronomical Twilight 4:25 AM CDT 9:34 PM CDT
Moon 11:41 PM CDT (6/8) 10:25 AM CDT (6/8)
Length of Visible Light 14h 53m
Length of Day
13h 59m
Waning Gibbous, 77% of the Moon is Illuminated
Jun 8
Waning Gibbous
Jun 11
Last Quarter
Jun 19
New
Jun 26
First Quarter
Jul 3
Full

Hourly Weather History & Observations

Time (CDT) Temp. Heat Index Dew Point Humidity Pressure Visibility Wind Dir Wind Speed Gust Speed Precip Events Conditions
12:15 AM 77.0 °F - 73.4 °F 89% 29.90 in 10.0 mi NW 3.5 mph - N/A   Clear
12:35 AM 73.4 °F - 73.4 °F 100% 29.90 in 10.0 mi NNW 3.5 mph - N/A   Clear
12:55 AM 75.2 °F - 73.4 °F 94% 29.90 in 10.0 mi NNE 3.5 mph - N/A Rain Rain
1:15 AM 75.2 °F - 73.4 °F 94% 29.89 in 10.0 mi Calm Calm - N/A Rain Light Rain
1:35 AM 73.4 °F - 73.4 °F 100% 29.89 in 10.0 mi Calm Calm - N/A   Clear
1:55 AM 73.4 °F - 73.4 °F 100% 29.88 in 10.0 mi NW 4.6 mph - N/A   Clear
2:15 AM 73.4 °F - 73.4 °F 100% 29.87 in 10.0 mi NNW 3.5 mph - N/A   Clear
2:35 AM 71.6 °F - 71.6 °F 100% 29.87 in 10.0 mi Calm Calm - N/A   Scattered Clouds
2:55 AM 71.6 °F - 71.6 °F 100% 29.86 in 7.0 mi Calm Calm - N/A   Scattered Clouds
3:15 AM 71.6 °F - 71.6 °F 100% 29.86 in 7.0 mi Calm Calm - N/A   Scattered Clouds
3:35 AM 71.6 °F - 71.6 °F 100% 29.85 in 7.0 mi NW 5.8 mph - N/A   Clear
3:55 AM 71.6 °F - 71.6 °F 100% 29.86 in 5.0 mi Calm Calm - N/A   Clear
4:15 AM 71.6 °F - 71.6 °F 100% 29.86 in 7.0 mi NW 3.5 mph - N/A   Clear
4:55 AM 71.6 °F - 71.6 °F 100% 29.87 in 7.0 mi NW 4.6 mph - N/A   Scattered Clouds
5:15 AM 71.6 °F - 71.6 °F 100% 29.87 in 10.0 mi ENE 5.8 mph - N/A   Mostly Cloudy
5:35 AM 75.2 °F - 71.6 °F 89% 29.88 in 10.0 mi ENE 9.2 mph 19.6 mph N/A   Overcast
5:55 AM 73.4 °F - 71.6 °F 94% 29.88 in 10.0 mi ENE 6.9 mph - N/A   Scattered Clouds
6:15 AM 73.4 °F - 71.6 °F 94% 29.88 in 10.0 mi NE 5.8 mph - N/A Thunderstorm Clear
6:35 AM 73.4 °F - 71.6 °F 94% 29.88 in 10.0 mi NE 6.9 mph - N/A Thunderstorm Thunderstorm
6:55 AM 73.4 °F - 71.6 °F 94% 29.87 in 10.0 mi NE 4.6 mph - N/A Thunderstorm Clear
7:15 AM 73.4 °F - 71.6 °F 94% 29.88 in 10.0 mi ENE 4.6 mph - N/A Thunderstorm Clear
7:35 AM 77.0 °F - 73.4 °F 89% 29.89 in 10.0 mi ESE 5.8 mph - N/A Thunderstorm Clear
7:55 AM 75.2 °F - 73.4 °F 94% 29.91 in 10.0 mi East 4.6 mph - N/A Thunderstorm Clear
8:15 AM 75.2 °F - 73.4 °F 94% 29.92 in 10.0 mi East 4.6 mph - N/A   Clear
8:35 AM 75.2 °F - 73.4 °F 94% 29.92 in 10.0 mi ESE 4.6 mph - N/A Thunderstorm Clear
8:55 AM 75.2 °F - 73.4 °F 94% 29.92 in 10.0 mi East 3.5 mph - N/A   Clear
9:15 AM 77.0 °F - 73.4 °F 89% 29.93 in 10.0 mi ENE 3.5 mph - N/A Thunderstorm Clear
9:35 AM 77.0 °F - 73.4 °F 89% 29.93 in 10.0 mi ENE 3.5 mph - N/A Rain Light Rain
9:55 AM 77.0 °F - 75.2 °F 94% 29.91 in 10.0 mi NE 4.6 mph - N/A   Clear
10:15 AM 77.0 °F - 75.2 °F 94% 29.91 in 10.0 mi NE 3.5 mph - N/A   Scattered Clouds
10:35 AM 78.8 °F - 75.2 °F 89% 29.91 in 10.0 mi ENE 5.8 mph - N/A   Scattered Clouds
10:55 AM 78.8 °F - 75.2 °F 89% 29.91 in 10.0 mi East 6.9 mph - N/A   Scattered Clouds
11:15 AM 80.6 °F 86.2 °F 75.2 °F 84% 29.90 in 10.0 mi NE 10.4 mph - N/A   Scattered Clouds
11:35 AM 82.4 °F 88.2 °F 73.4 °F 74% 29.89 in 10.0 mi NE 6.9 mph - N/A   Scattered Clouds
11:55 AM 82.4 °F 88.2 °F 73.4 °F 74% 29.89 in 10.0 mi ENE 8.1 mph - N/A   Scattered Clouds
12:15 PM 80.6 °F 85.4 °F 73.4 °F 79% 29.90 in 10.0 mi ENE 6.9 mph - N/A   Mostly Cloudy
12:35 PM 80.6 °F 84.6 °F 71.6 °F 74% 29.90 in 10.0 mi ENE 6.9 mph - N/A   Clear
12:55 PM 80.6 °F 84.6 °F 71.6 °F 74% 29.90 in 10.0 mi East 5.8 mph - N/A   Clear
1:15 PM 80.6 °F 84.6 °F 71.6 °F 74% 29.89 in 10.0 mi ENE 5.8 mph - N/A   Clear
1:55 PM 80.6 °F 85.4 °F 73.4 °F 79% 29.89 in 10.0 mi ENE 5.8 mph - N/A   Mostly Cloudy
2:15 PM 82.4 °F 87.2 °F 71.6 °F 70% 29.87 in 10.0 mi ENE 6.9 mph - N/A   Scattered Clouds
2:35 PM 82.4 °F 88.2 °F 73.4 °F 74% 29.86 in 10.0 mi ENE 6.9 mph - N/A   Scattered Clouds
3:15 PM 82.4 °F 88.2 °F 73.4 °F 74% 29.85 in 10.0 mi NE 6.9 mph - N/A   Scattered Clouds
3:55 PM 82.4 °F 87.2 °F 71.6 °F 70% 29.85 in 10.0 mi NE 8.1 mph - N/A   Clear
4:15 PM 82.4 °F 87.2 °F 71.6 °F 70% 29.84 in 10.0 mi NE 11.5 mph 16.1 mph N/A   Clear
4:35 PM 82.4 °F 88.2 °F 73.4 °F 74% 29.84 in 10.0 mi NE 9.2 mph - N/A   Clear
4:55 PM 82.4 °F 88.2 °F 73.4 °F 74% 29.85 in 10.0 mi ENE 8.1 mph - N/A   Scattered Clouds
5:35 PM 82.4 °F 88.2 °F 73.4 °F 74% 29.84 in 10.0 mi NE 6.9 mph - N/A   Mostly Cloudy
5:55 PM 82.4 °F 87.2 °F 71.6 °F 70% 29.84 in 10.0 mi NE 6.9 mph - N/A   Scattered Clouds
6:15 PM 82.4 °F 88.2 °F 73.4 °F 74% 29.84 in 10.0 mi NE 8.1 mph - N/A   Scattered Clouds
6:35 PM 78.8 °F - 73.4 °F 83% 29.84 in 2.0 mi NE 3.5 mph - 0.24 in Rain Rain
6:55 PM 78.8 °F - 73.4 °F 83% 29.84 in 10.0 mi ENE 3.5 mph - 0.24 in   Mostly Cloudy
7:15 PM 78.8 °F - 73.4 °F 83% 29.84 in 10.0 mi ENE 4.6 mph - N/A   Scattered Clouds
7:35 PM 77.0 °F - 75.2 °F 94% 29.84 in 5.0 mi ESE 4.6 mph - 0.07 in Rain Light Rain
7:55 PM 77.0 °F - 75.2 °F 94% 29.84 in 10.0 mi ESE 3.5 mph - 0.08 in   Mostly Cloudy
8:15 PM 77.0 °F - 75.2 °F 94% 29.84 in 10.0 mi East 4.6 mph - N/A   Mostly Cloudy
8:35 PM 77.0 °F - 75.2 °F 94% 29.85 in 10.0 mi NE 3.5 mph - N/A   Mostly Cloudy
8:55 PM 77.0 °F - 73.4 °F 89% 29.86 in 10.0 mi East 3.5 mph - N/A   Scattered Clouds
9:15 PM 77.0 °F - 73.4 °F 89% 29.86 in 10.0 mi Calm Calm - N/A   Scattered Clouds
9:35 PM 77.0 °F - 73.4 °F 89% 29.86 in 10.0 mi Calm Calm - N/A   Mostly Cloudy
9:55 PM 77.0 °F - 73.4 °F 89% 29.86 in 10.0 mi East 3.5 mph - N/A   Mostly Cloudy
10:15 PM 77.0 °F - 73.4 °F 89% 29.86 in 10.0 mi East 3.5 mph - N/A   Scattered Clouds
10:35 PM 73.4 °F - 73.4 °F 100% 29.86 in 10.0 mi East 3.5 mph - N/A   Scattered Clouds
10:55 PM 73.4 °F - 73.4 °F 100% 29.86 in 10.0 mi East 4.6 mph - N/A   Scattered Clouds
11:35 PM 75.2 °F - 73.4 °F 94% 29.86 in 10.0 mi ENE 4.6 mph - N/A   Clear
11:55 PM 73.4 °F - 73.4 °F 100% 29.86 in 10.0 mi ENE 3.5 mph - N/A   Clear